Hovedside
METAR-TAF:

METAR-TAF

Lufthavner :

Førde, Norge

Førde lufthamn

breddegrad: 61-27N, lengdegrad: 005-52E, høyde over havet: 150 m

Gjeldene værobservasjon

Denne rapporten ble laget for 32 minutter siden, klokken 09:50 UTC
Vind 7 kt fra Sørøst
Temperatur 11°C
Luftfuktighet 62%
Trykk 990 hPa
Sikt 10 km eller mer
Spredte skyer i en høyde av 3000 ft
Brutte skyer i en høyde av 4500 ft

METAR: ENBL 250950Z 14007KT 9999 SCT030 BKN045 11/04 Q0990

Tid: 12:22 (10:22 UTC)


TAF: fraværende

Værobservasjoner og værvarsel for over 4000 flyplasser (METAR- og TAF-rapporter).

Tilgjengelige stasjoner er representert av de røde og gule prikkene på kartet.

Hold musepekeren over prikken for å se navnet på stasjonen.

Klikk så for å se værobservasjoner og -varsler.

For å forandre kartet kan du klikke på den grønne knappen med svart kryss for å zoome inn, på den grønne knappen med strek for å zoome ut, eller på de grønne pilene for å se tilstøtende kart.


METAR-TAF: